SAS27A ENVA-ENBR

Flight info

Callsign SAS27A
Flight time 0h 40m
Altitude 30000
Route OSMUM DCT KEKOD DCT LUNUR
Aircraft A320/M-SDE3FGHIRWY/LB1

Departure

Time 2026-04-27 12:49
Airport Trondheim Airport, Værnes (ENVA)

Arrival

Time 2026-04-27 13:29
Airport Bergen Airport, Flesland (ENBR)
Time Latitude Longitude Altitude Speed Heading
2026-04-27 12:48 63.45797 10.84648 2034 ft 175 kts 274°
2026-04-27 12:49 63.45801 10.81754 2311 ft 198 kts 274°
2026-04-27 12:49 63.45804 10.78523 2731 ft 216 kts 273°
2026-04-27 12:49 63.45802 10.75124 3518 ft 220 kts 273°
2026-04-27 12:49 63.45795 10.71670 4359 ft 223 kts 273°
2026-04-27 12:50 63.45790 10.68168 5183 ft 227 kts 273°
2026-04-27 12:50 63.45787 10.64599 5981 ft 231 kts 274°
2026-04-27 12:50 63.45784 10.60965 6790 ft 236 kts 275°
2026-04-27 12:50 63.45760 10.57260 7549 ft 242 kts 269°
2026-04-27 12:51 63.45107 10.53736 8330 ft 257 kts 232°
2026-04-27 12:51 63.43560 10.51476 8901 ft 280 kts 199°
2026-04-27 12:51 63.41597 10.51010 9598 ft 291 kts 169°
2026-04-27 12:51 63.39771 10.52815 10315 ft 293 kts 136°
2026-04-27 12:52 63.38258 10.56963 10996 ft 297 kts 112°
2026-04-27 12:52 63.37506 10.66295 11441 ft 327 kts 83°
2026-04-27 12:52 63.37109 10.76974 12212 ft 368 kts 106°
2026-04-27 12:52 63.33476 10.85210 13563 ft 395 kts 158°
2026-04-27 12:53 63.22326 10.87341 15993 ft 410 kts 179°
2026-04-27 12:53 63.16674 10.86766 17138 ft 413 kts 196°
2026-04-27 12:53 63.11440 10.81789 18361 ft 406 kts 220°
2026-04-27 12:54 63.08652 10.76380 19131 ft 400 kts 235°
2026-04-27 12:54 63.05243 10.66663 20302 ft 403 kts 239°
2026-04-27 12:54 63.01767 10.56837 21464 ft 409 kts 238°
2026-04-27 12:54 62.98223 10.46891 22502 ft 416 kts 238°
2026-04-27 12:55 62.93445 10.33491 23796 ft 424 kts 238°
2026-04-27 12:55 62.91009 10.26699 24342 ft 427 kts 238°
2026-04-27 12:55 62.87301 10.16412 25154 ft 431 kts 238°
2026-04-27 12:55 62.83487 10.06101 25916 ft 439 kts 232°
2026-04-27 12:56 62.79158 9.96485 26642 ft 444 kts 231°
2026-04-27 12:56 62.74856 9.86948 27352 ft 447 kts 231°
2026-04-27 12:56 62.70456 9.77221 28037 ft 451 kts 231°
2026-04-27 12:56 62.66015 9.67474 28740 ft 455 kts 231°
2026-04-27 12:57 62.61529 9.57698 29431 ft 458 kts 231°
2026-04-27 12:57 62.57044 9.47954 30395 ft 455 kts 231°
2026-04-27 12:57 62.48100 9.28615 30444 ft 453 kts 230°
2026-04-27 12:58 62.39201 9.09559 30440 ft 452 kts 230°
2026-04-27 12:58 62.30174 8.90378 30438 ft 467 kts 230°
2026-04-27 12:59 62.20929 8.70940 30416 ft 479 kts 229°
2026-04-27 12:59 62.16156 8.60975 30423 ft 479 kts 229°
2026-04-27 13:00 62.11371 8.51014 30419 ft 479 kts 228°
2026-04-27 13:00 62.06601 8.41129 30419 ft 479 kts 228°
2026-04-27 13:01 62.01810 8.31251 30407 ft 480 kts 228°
2026-04-27 13:01 61.97001 8.21386 30398 ft 480 kts 228°
2026-04-27 13:02 61.92189 8.11569 30391 ft 480 kts 227°
2026-04-27 13:02 61.87382 8.01804 30392 ft 480 kts 227°
2026-04-27 13:03 61.82554 7.92021 30394 ft 480 kts 227°
2026-04-27 13:03 61.77714 7.82268 30396 ft 481 kts 227°
2026-04-27 13:04 61.72859 7.72559 30394 ft 481 kts 226°
2026-04-27 13:04 61.67997 7.62872 30387 ft 481 kts 226°
2026-04-27 13:05 61.63110 7.53229 30377 ft 481 kts 225°
2026-04-27 13:05 61.58129 7.43800 30373 ft 482 kts 224°
2026-04-27 13:06 61.53201 7.34653 30388 ft 461 kts 224°
2026-04-27 13:06 61.48443 7.25793 30376 ft 456 kts 224°
2026-04-27 13:07 61.43722 7.16964 30370 ft 455 kts 224°
2026-04-27 13:07 61.39002 7.08142 30364 ft 455 kts 224°
2026-04-27 13:08 61.34277 6.99381 30359 ft 455 kts 224°
2026-04-27 13:08 61.29573 6.90715 30357 ft 455 kts 224°
2026-04-27 13:09 61.24828 6.82014 30360 ft 455 kts 223°
2026-04-27 13:09 61.20071 6.73338 30361 ft 455 kts 223°
2026-04-27 13:10 61.15312 6.64676 30347 ft 455 kts 223°
2026-04-27 13:10 61.10573 6.56085 30346 ft 456 kts 223°
2026-04-27 13:11 61.08192 6.51772 30173 ft 453 kts 223°
2026-04-27 13:11 61.05811 6.47467 28690 ft 462 kts 223°
2026-04-27 13:11 61.03354 6.43034 27469 ft 471 kts 223°
2026-04-27 13:11 61.00936 6.38693 26916 ft 451 kts 222°
2026-04-27 13:12 60.98598 6.34511 25976 ft 440 kts 222°
2026-04-27 13:12 60.96308 6.30424 24980 ft 432 kts 222°
2026-04-27 13:12 60.94053 6.26406 23981 ft 425 kts 222°
2026-04-27 13:12 60.91832 6.22457 22862 ft 420 kts 222°
2026-04-27 13:13 60.89639 6.18567 21865 ft 413 kts 222°
2026-04-27 13:13 60.87474 6.14731 21315 ft 411 kts 222°
2026-04-27 13:13 60.85261 6.11041 20780 ft 409 kts 215°
2026-04-27 13:13 60.82795 6.08162 20257 ft 407 kts 204°
2026-04-27 13:14 60.80134 6.06238 19740 ft 404 kts 196°
2026-04-27 13:14 60.77438 6.04671 19216 ft 401 kts 196°
2026-04-27 13:14 60.74765 6.03119 18667 ft 398 kts 196°
2026-04-27 13:14 60.72112 6.01576 18081 ft 394 kts 196°
2026-04-27 13:15 60.69484 6.00041 17546 ft 391 kts 196°
2026-04-27 13:15 60.66874 5.98518 17009 ft 389 kts 196°
2026-04-27 13:15 60.64285 5.97011 16450 ft 385 kts 196°
2026-04-27 13:15 60.61715 5.95522 15901 ft 382 kts 196°
2026-04-27 13:16 60.59169 5.94052 15342 ft 379 kts 196°
2026-04-27 13:16 60.56670 5.92612 14775 ft 376 kts 196°
2026-04-27 13:16 60.54167 5.91171 13948 ft 371 kts 196°
2026-04-27 13:16 60.51700 5.89747 13059 ft 366 kts 196°
2026-04-27 13:17 60.49268 5.88341 12191 ft 361 kts 196°
2026-04-27 13:17 60.46866 5.86959 11353 ft 356 kts 196°
2026-04-27 13:17 60.44497 5.85599 10654 ft 349 kts 196°
2026-04-27 13:17 60.42237 5.84305 10438 ft 324 kts 196°
2026-04-27 13:18 60.40144 5.83108 10350 ft 300 kts 196°
2026-04-27 13:18 60.38217 5.82005 10365 ft 288 kts 196°
2026-04-27 13:18 60.36296 5.80907 10364 ft 286 kts 196°
2026-04-27 13:18 60.34358 5.79801 10373 ft 285 kts 196°
2026-04-27 13:19 60.32470 5.78726 10373 ft 285 kts 196°
2026-04-27 13:19 60.30557 5.77637 10375 ft 285 kts 196°
2026-04-27 13:19 60.28647 5.76555 10372 ft 285 kts 196°
2026-04-27 13:19 60.26736 5.75471 10359 ft 284 kts 196°
2026-04-27 13:20 60.24832 5.74393 10012 ft 285 kts 196°
2026-04-27 13:20 60.22908 5.73305 9578 ft 288 kts 196°
2026-04-27 13:20 60.20974 5.72214 9248 ft 286 kts 196°
2026-04-27 13:20 60.19109 5.71279 9094 ft 267 kts 188°
2026-04-27 13:21 60.17274 5.71277 8720 ft 261 kts 170°
2026-04-27 13:21 60.15549 5.72197 8355 ft 254 kts 163°
2026-04-27 13:21 60.13790 5.72391 7630 ft 260 kts 195°
2026-04-27 13:21 60.12176 5.70686 6807 ft 269 kts 223°
2026-04-27 13:22 60.11067 5.67633 5890 ft 277 kts 249°
2026-04-27 13:22 60.10713 5.63954 5614 ft 260 kts 265°
2026-04-27 13:22 60.10548 5.60490 5463 ft 236 kts 264°
2026-04-27 13:22 60.10386 5.57371 4957 ft 223 kts 264°
2026-04-27 13:23 60.10223 5.54309 4277 ft 219 kts 263°
2026-04-27 13:23 60.10065 5.51321 4048 ft 217 kts 263°
2026-04-27 13:23 60.09907 5.48306 4004 ft 215 kts 263°
2026-04-27 13:23 60.09757 5.45373 4007 ft 209 kts 263°
2026-04-27 13:24 60.09622 5.42478 4013 ft 209 kts 268°
2026-04-27 13:24 60.09761 5.39589 4006 ft 209 kts 280°
2026-04-27 13:24 60.10035 5.36719 4006 ft 210 kts 280°
2026-04-27 13:24 60.10306 5.33846 4020 ft 210 kts 280°
2026-04-27 13:25 60.10760 5.31055 3758 ft 210 kts 298°
2026-04-27 13:25 60.11659 5.28832 3529 ft 201 kts 320°
2026-04-27 13:25 60.12827 5.27461 3309 ft 193 kts 340°
2026-04-27 13:25 60.14116 5.26897 3063 ft 191 kts 350°
2026-04-27 13:26 60.15428 5.26462 2801 ft 191 kts 350°
2026-04-27 13:26 60.16734 5.26027 2540 ft 189 kts 349°
2026-04-27 13:26 60.18028 5.25597 2277 ft 188 kts 349°
2026-04-27 13:26 60.19304 5.25172 2019 ft 181 kts 349°
2026-04-27 13:27 60.20512 5.24769 1772 ft 171 kts 349°
2026-04-27 13:27 60.21658 5.24386 1518 ft 165 kts 348°
2026-04-27 13:27 60.22732 5.24029 1305 ft 148 kts 348°
2026-04-27 13:27 60.23710 5.23702 1102 ft 141 kts 348°
2026-04-27 13:28 60.24678 5.23377 909 ft 140 kts 347°
2026-04-27 13:28 60.25637 5.23056 738 ft 139 kts 347°
2026-04-27 13:28 60.26585 5.22738 543 ft 137 kts 347°
2026-04-27 13:28 60.27520 5.22425 361 ft 135 kts 348°
2026-04-27 13:29 60.28450 5.22113 179 ft 135 kts 347°
2026-04-27 13:29 60.29256 5.21844 157 ft 90 kts 350°
2026-04-27 13:29 60.29608 5.21725 147 ft 22 kts 352°
2026-04-27 13:29 60.29710 5.21798 146 ft 17 kts 70°
2026-04-27 13:30 60.29721 5.21917 149 ft 0 kts 82°
2026-04-27 13:30 60.29721 5.21926 149 ft 4 kts 82°
2026-04-27 13:31 60.29699 5.22010 150 ft 10 kts 152°
2026-04-27 13:31 60.29603 5.22048 153 ft 16 kts 172°
2026-04-27 13:31 60.29491 5.22087 157 ft 17 kts 169°
2026-04-27 13:31 60.29372 5.22128 161 ft 18 kts 172°
2026-04-27 13:32 60.29241 5.22172 167 ft 20 kts 170°
2026-04-27 13:32 60.29099 5.22221 174 ft 21 kts 171°
2026-04-27 13:32 60.28940 5.22272 172 ft 25 kts 171°
2026-04-27 13:32 60.28774 5.22328 170 ft 23 kts 172°
2026-04-27 13:33 60.28693 5.22388 169 ft 8 kts 119°
2026-04-27 13:33 60.28676 5.22484 171 ft 7 kts 117°
2026-04-27 13:33 60.28672 5.22593 172 ft 9 kts 81°
2026-04-27 13:33 60.28686 5.22735 172 ft 11 kts 77°
2026-04-27 13:34 60.28697 5.22863 175 ft 5 kts 81°
2026-04-27 13:34 60.28702 5.22914 176 ft 0 kts 81°